Terminal Aerodrome Forecast
Issued by NWS

Home | Current Version | Previous Version | Graphics & Text | Print | Product List | Glossary On
Versions: 1 2 3 4 5 6 7 8 9 10 11 12 13 14 15 16 17 18 19 20 21 22 23 24 25 26 27
000
FTUS43 KICT 201100
TAFCNU
TAF
KCNU 201122Z 2012/2112 18007KT 3SM BR SCT010 BKN130
     FM201400 21012KT P6SM SCT035
     FM210000 21007KT P6SM VCTS SCT040CB BKN100
     FM210700 32007KT P6SM VCTS BKN070CB=

USA.gov is the U.S. government's official web portal to all federal, state and local government web resources and services.